| time (UTC) | temp F | wind direction | speed MPH | gust MPH | rain 1hr in | rain 24hr in | rain mn in | humidity % | barometer mb |
| 20260903034507 | 76 | 124 | 0.0 | 4.0 | 0.00 | 4.44 | 4.40 | 94 | 1015.2 |
| 20260903034004 | 76 | 205 | 0.0 | 6.0 | 0.00 | 4.44 | 4.40 | 94 | 1015.2 |
| 20260903033507 | 77 | 150 | 0.0 | 6.0 | 0.00 | 4.46 | 4.40 | 94 | 1015.2 |
| 20260903033014 | 76 | 179 | 1.0 | 5.0 | 0.00 | 4.46 | 4.40 | 94 | 1015.3 |
| 20260903032506 | 76 | 220 | 2.0 | 4.0 | 0.00 | 4.46 | 4.40 | 94 | 1015.3 |
| 20260903032007 | 76 | 0.0 | 2.0 | 0.00 | 4.48 | 4.40 | 94 | 1015.3 | |
| 20260903031519 | 76 | 27 | 0.0 | 2.0 | 0.00 | 4.48 | 4.40 | 94 | 1015.3 |
| 20260903031007 | 76 | 161 | 0.0 | 2.0 | 0.00 | 4.50 | 4.40 | 94 | 1015.2 |
| 20260903030504 | 76 | 67 | 0.0 | 2.0 | 0.00 | 4.50 | 4.40 | 94 | 1015.1 |
| 20260903030013 | 76 | 207 | 0.0 | 2.0 | 0.00 | 4.51 | 4.40 | 94 | 1015.1 |
| 20260903025504 | 76 | 341 | 0.0 | 3.0 | 0.00 | 4.51 | 4.40 | 94 | 1015.1 |
| 20260903025004 | 76 | 159 | 0.0 | 3.0 | 0.00 | 4.52 | 4.40 | 94 | 1015.1 |
| 20260903024506 | 76 | 92 | 0.0 | 3.0 | 0.01 | 4.53 | 4.40 | 94 | 1015.1 |
| 20260903024008 | 76 | 360 | 0.0 | 3.0 | 0.01 | 4.54 | 4.40 | 94 | 1015.0 |
| 20260903023509 | 76 | 103 | 0.0 | 3.0 | 0.01 | 4.55 | 4.40 | 94 | 1014.9 |
| 20260903023012 | 76 | 70 | 1.0 | 3.0 | 0.01 | 4.56 | 4.40 | 94 | 1015.0 |
| 20260903022509 | 76 | 265 | 0.0 | 4.0 | 0.01 | 4.56 | 4.40 | 94 | 1015.0 |
| 20260903022009 | 76 | 265 | 1.0 | 4.0 | 0.01 | 4.57 | 4.40 | 94 | 1015.1 |
| 20260903021516 | 76 | 349 | 0.0 | 4.0 | 0.01 | 4.58 | 4.40 | 94 | 1014.9 |
| 20260903021010 | 76 | 240 | 1.0 | 4.0 | 0.01 | 4.59 | 4.40 | 94 | 1014.7 |
| 20260903020513 | 76 | 96 | 0.0 | 2.0 | 0.01 | 4.60 | 4.40 | 94 | 1014.7 |
| 20260903020032 | 76 | 129 | 0.0 | 2.0 | 0.01 | 4.61 | 4.40 | 94 | 1014.8 |
| 20260903015510 | 76 | 82 | 0.0 | 5.0 | 0.01 | 4.63 | 4.40 | 94 | 1014.8 |
| 20260903015002 | 76 | 245 | 0.0 | 5.0 | 0.01 | 4.64 | 4.40 | 94 | 1014.9 |
| 20260903014505 | 76 | 234 | 0.0 | 3.0 | 0.01 | 4.64 | 4.39 | 94 | 1014.9 |
| 20260903014007 | 76 | 118 | 0.0 | 5.0 | 0.01 | 4.65 | 4.39 | 94 | 1014.7 |
| 20260903013506 | 76 | 94 | 1.0 | 5.0 | 0.01 | 4.66 | 4.39 | 94 | 1014.5 |
| 20260903013009 | 76 | 352 | 1.0 | 5.0 | 0.01 | 4.67 | 4.39 | 94 | 1014.1 |
| 20260903012511 | 76 | 178 | 1.0 | 4.0 | 0.01 | 4.69 | 4.39 | 94 | 1014.1 |
| 20260903012011 | 76 | 341 | 0.0 | 2.0 | 0.01 | 4.69 | 4.39 | 93 | 1014.1 |
| 20260903011517 | 76 | 67 | 0.0 | 3.0 | 0.01 | 4.71 | 4.39 | 94 | 1014.2 |
| 20260903011009 | 76 | 279 | 0.0 | 4.0 | 0.01 | 4.71 | 4.39 | 94 | 1014.5 |
| 20260903010511 | 75 | 128 | 0.0 | 5.0 | 0.01 | 4.73 | 4.39 | 94 | 1014.5 |
| 20260903010021 | 75 | 266 | 0.0 | 5.0 | 0.01 | 4.73 | 4.39 | 94 | 1014.6 |
| 20260903005514 | 75 | 313 | 0.0 | 4.0 | 0.01 | 4.73 | 4.39 | 94 | 1014.5 |
| 20260903005015 | 75 | 49 | 0.0 | 4.0 | 0.01 | 4.75 | 4.39 | 94 | 1014.3 |
| 20260903004519 | 75 | 89 | 0.0 | 3.0 | 0.00 | 4.75 | 4.38 | 93 | 1014.2 |
| 20260903004010 | 75 | 78 | 1.0 | 4.0 | 0.00 | 4.75 | 4.38 | 93 | 1014.2 |
| 20260903003512 | 75 | 339 | 1.0 | 4.0 | 0.00 | 4.76 | 4.38 | 93 | 1014.2 |
| 20260903003008 | 75 | 80 | 1.0 | 0.0 | 0.00 | 4.76 | 4.38 | 93 | 1014.4 |
| 20260903002513 | 0 | 0.0 | 0.0 | 0.00 | 4.77 | 4.38 | 1014.2 | ||
| 20260903002014 | 0 | 0.0 | 0.0 | 0.00 | 4.77 | 4.38 | 1014.1 | ||
| 20260903001519 | 0 | 0.0 | 0.0 | 0.00 | 4.78 | 4.38 | 1014.0 | ||
| 20260903001014 | 0 | 0.0 | 0.0 | 0.00 | 4.78 | 4.38 | 1014.2 | ||
| 20260903000510 | 0 | 0.0 | 0.0 | 0.00 | 4.79 | 4.38 | 1014.3 | ||
| 20260903000019 | 0 | 0.0 | 0.0 | 0.00 | 4.79 | 4.38 | 1014.5 | ||
| 20260902235514 | 0 | 0.0 | 0.0 | 0.00 | 4.79 | 4.38 | 1014.5 | ||
| 20260902235012 | 0 | 0.0 | 0.0 | 0.00 | 4.79 | 4.38 | 1014.5 | ||
| 20260902234519 | 0 | 0.0 | 0.0 | 0.00 | 4.79 | 4.38 | 1014.6 | ||
| 20260902234011 | 0 | 0.0 | 0.0 | 0.00 | 4.79 | 4.38 | 1014.7 | ||
| 20260902233513 | 0 | 0.0 | 0.0 | 0.00 | 4.79 | 4.38 | 1014.8 | ||
| 20260902233020 | 0 | 0.0 | 0.0 | 0.00 | 4.79 | 4.38 | 1014.7 | ||
| 20260902232515 | 0 | 0.0 | 0.0 | 0.00 | 4.79 | 4.38 | 1014.9 | ||
| 20260902232014 | 0 | 0.0 | 0.0 | 0.00 | 4.79 | 4.38 | 1015.0 | ||
| 20260902231539 | 0 | 0.0 | 0.0 | 0.07 | 4.79 | 4.38 | 1014.9 | ||
| 20260902231014 | 0 | 0.0 | 0.0 | 0.11 | 4.79 | 4.38 | 1015.0 | ||
| 20260902230513 | 0 | 0.0 | 0.0 | 0.13 | 4.79 | 4.38 | 1015.1 | ||
| 20260902230023 | 0 | 0.0 | 0.0 | 0.15 | 4.79 | 4.38 | 1015.0 | ||
| 20260902225516 | 0 | 0.0 | 0.0 | 0.18 | 4.79 | 4.38 | 1014.8 | ||
| 20260902225016 | 0 | 0.0 | 0.0 | 0.27 | 4.79 | 4.38 | 1014.8 | ||
| 20260902224524 | 0 | 0.0 | 0.0 | 0.35 | 4.79 | 4.38 | 1014.6 | ||
| 20260902224014 | 0 | 0.0 | 0.0 | 0.42 | 4.79 | 4.38 | 1014.8 | ||
| 20260902223515 | 0 | 0.0 | 0.0 | 0.47 | 4.79 | 4.38 | 1014.4 | ||
| 20260902223035 | 0 | 0.0 | 0.0 | 0.48 | 4.79 | 4.38 | 1014.5 | ||
| 20260902222519 | 75 | 0.0 | 2.0 | 0.48 | 4.79 | 4.38 | 91 | 1014.4 | |
| 20260902222019 | 75 | 233 | 0.0 | 2.0 | 0.48 | 4.79 | 4.38 | 91 | 1014.8 |
| 20260902221529 | 75 | 321 | 0.0 | 2.0 | 0.41 | 4.71 | 4.31 | 91 | 1014.8 |
| 20260902221016 | 75 | 86 | 0.0 | 2.0 | 0.37 | 4.67 | 4.27 | 91 | 1014.9 |
| 20260902220516 | 75 | 113 | 0.0 | 4.0 | 0.35 | 4.66 | 4.25 | 91 | 1014.7 |
| 20260902220033 | 75 | 222 | 1.0 | 5.0 | 0.33 | 4.64 | 4.23 | 90 | 1014.2 |
| 20260902215511 | 75 | 269 | 1.0 | 7.0 | 0.30 | 4.61 | 4.19 | 90 | 1014.2 |
| 20260902215013 | 76 | 240 | 0.0 | 7.0 | 0.21 | 4.52 | 4.11 | 90 | 1014.3 |
| 20260902214523 | 76 | 360 | 0.0 | 5.0 | 0.13 | 4.44 | 4.03 | 90 | 1014.6 |
| 20260902214015 | 77 | 24 | 1.0 | 5.0 | 0.06 | 4.37 | 3.96 | 91 | 1014.6 |
| 20260902213514 | 78 | 350 | 2.0 | 10.0 | 0.01 | 4.32 | 3.91 | 91 | 1014.9 |
| 20260902213025 | 79 | 80 | 2.0 | 10.0 | 0.00 | 4.31 | 3.90 | 91 | 1015.0 |
| 20260902212516 | 80 | 290 | 0.0 | 0.0 | 0.00 | 4.31 | 3.90 | 92 | 1014.7 |
| 20260902212016 | 80 | 59 | 0.0 | 0.0 | 0.00 | 4.31 | 3.90 | 92 | 1014.3 |
| 20260902211530 | 80 | 59 | 0.0 | 0.0 | 0.00 | 4.31 | 3.90 | 92 | 1014.1 |
| 20260902211015 | 80 | 59 | 0.0 | 2.0 | 0.00 | 4.31 | 3.90 | 92 | 1014.0 |
| 20260902210514 | 80 | 59 | 0.0 | 2.0 | 0.00 | 4.31 | 3.90 | 92 | 1014.0 |
| 20260902210027 | 80 | 140 | 0.0 | 2.0 | 0.00 | 4.31 | 3.90 | 92 | 1014.1 |
| 20260902205515 | 80 | 329 | 0.0 | 1.0 | 0.00 | 4.31 | 3.90 | 92 | 1013.9 |
| 20260902205015 | 80 | 48 | 0.0 | 1.0 | 0.00 | 4.31 | 3.90 | 92 | 1014.0 |
| 20260902204533 | 80 | 40 | 0.0 | 4.0 | 0.00 | 4.31 | 3.90 | 92 | 1014.1 |
| 20260902204015 | 80 | 40 | 0.0 | 4.0 | 0.00 | 4.31 | 3.90 | 92 | 1014.0 |
| 20260902203512 | 80 | 180 | 0.0 | 3.0 | 0.00 | 4.31 | 3.90 | 92 | 1013.9 |
| 20260902203027 | 80 | 29 | 0.0 | 3.0 | 0.00 | 4.31 | 3.90 | 92 | 1014.0 |
| 20260902202514 | 80 | 221 | 0.0 | 3.0 | 0.00 | 4.31 | 3.90 | 92 | 1014.0 |
| 20260902202016 | 80 | 227 | 0.0 | 3.0 | 0.00 | 4.34 | 3.90 | 92 | 1014.2 |
| 20260902201527 | 80 | 236 | 0.0 | 4.0 | 0.00 | 4.34 | 3.90 | 92 | 1014.3 |
| 20260902201019 | 80 | 184 | 1.0 | 8.0 | 0.00 | 4.34 | 3.90 | 92 | 1014.1 |
| 20260902200518 | 80 | 119 | 2.0 | 7.0 | 0.00 | 4.34 | 3.90 | 92 | 1014.3 |
| 20260902200032 | 80 | 236 | 1.0 | 6.0 | 0.00 | 4.34 | 3.90 | 92 | 1014.3 |
| 20260902195516 | 80 | 63 | 1.0 | 6.0 | 0.00 | 4.34 | 3.90 | 92 | 1014.3 |
| 20260902195016 | 80 | 211 | 1.0 | 4.0 | 0.00 | 4.34 | 3.90 | 92 | 1014.3 |
| 20260902194532 | 79 | 181 | 2.0 | 7.0 | 0.00 | 4.34 | 3.90 | 92 | 1014.3 |
| 20260902194018 | 79 | 134 | 1.0 | 7.0 | 0.00 | 4.34 | 3.90 | 92 | 1014.5 |
| 20260902193516 | 79 | 71 | 1.0 | 4.0 | 0.00 | 4.34 | 3.90 | 93 | 1014.6 |
| 20260902193021 | 80 | 270 | 1.0 | 4.0 | 0.00 | 4.36 | 3.90 | 93 | 1014.5 |
| 20260902192517 | 80 | 165 | 0.0 | 4.0 | 0.00 | 4.36 | 3.90 | 93 | 1014.5 |
| 20260902192017 | 79 | 148 | 1.0 | 7.0 | 0.00 | 4.36 | 3.90 | 93 | 1014.5 |
| 20260902191521 | 79 | 201 | 2.0 | 0.0 | 0.00 | 4.36 | 3.90 | 1014.5 | |
| 20260902191015 | 0 | 0.0 | 0.0 | 0.00 | 4.36 | 3.90 | 1014.6 | ||
| 20260902190517 | 0 | 0.0 | 0.0 | 0.00 | 4.36 | 3.90 | 1014.6 | ||
| 20260902190032 | 0 | 0.0 | 0.0 | 0.00 | 4.37 | 3.90 | 1014.6 | ||
| 20260902185518 | 0 | 0.0 | 0.0 | 0.00 | 4.37 | 3.90 | 1014.6 | ||
| 20260902185021 | 0 | 0.0 | 0.0 | 0.00 | 4.38 | 3.90 | 1014.5 | ||
| 20260902184541 | 0 | 0.0 | 0.0 | 0.00 | 4.40 | 3.90 | 1014.5 | ||
| 20260902184018 | 0 | 0.0 | 0.0 | 0.00 | 4.41 | 3.90 | 1014.7 | ||
| 20260902183519 | 0 | 0.0 | 0.0 | 0.00 | 4.41 | 3.90 | 1014.8 | ||
| 20260902183032 | 0 | 0.0 | 0.0 | 0.00 | 4.50 | 3.90 | 1014.9 | ||
| 20260902182515 | 0 | 0.0 | 0.0 | 0.00 | 4.50 | 3.90 | 1014.9 | ||
| 20260902182016 | 0 | 0.0 | 0.0 | 0.00 | 4.50 | 3.90 | 1014.9 | ||
| 20260902181533 | 0 | 0.0 | 0.0 | 0.00 | 4.50 | 3.90 | 1014.9 | ||
| 20260902181019 | 77 | 5.0 | 8.0 | 0.00 | 4.50 | 3.90 | 94 | 1014.9 | |
| 20260902180516 | 77 | 360 | 5.0 | 8.0 | 0.00 | 4.50 | 3.90 | 94 | 1014.9 |
| 20260902180033 | 77 | 360 | 3.0 | 9.0 | 0.00 | 4.50 | 3.90 | 94 | 1014.9 |
| 20260902175514 | 77 | 293 | 3.0 | 9.0 | 0.00 | 4.50 | 3.90 | 94 | 1015.1 |
| 20260902175022 | 77 | 207 | 4.0 | 12.0 | 0.00 | 4.50 | 3.90 | 94 | 1015.2 |
| 20260902174534 | 77 | 172 | 5.0 | 0.0 | 0.00 | 4.50 | 3.90 | 94 | 1015.1 |
| 20260902174018 | 0 | 0.0 | 0.0 | 0.00 | 4.50 | 3.90 | 1015.2 | ||
| 20260902173525 | 0 | 0.0 | 0.0 | 0.00 | 4.50 | 3.90 | 1015.4 | ||
| 20260902173034 | 0 | 0.0 | 0.0 | 0.00 | 4.50 | 3.90 | 1015.4 | ||
| 20260902172518 | 0 | 0.0 | 0.0 | 0.00 | 4.50 | 3.90 | 1015.5 | ||
| 20260902172016 | 0 | 0.0 | 0.0 | 0.00 | 4.50 | 3.90 | 1015.6 | ||
| 20260902171534 | 0 | 0.0 | 0.0 | 0.00 | 4.50 | 3.90 | 1015.8 | ||
| 20260902171018 | 0 | 0.0 | 0.0 | 0.00 | 4.50 | 3.90 | 1015.7 | ||
| 20260902170517 | 0 | 0.0 | 0.0 | 0.00 | 4.50 | 3.90 | 1015.8 | ||
| 20260902170031 | 0 | 0.0 | 0.0 | 0.00 | 4.50 | 3.90 | 1015.8 | ||
| 20260902165515 | 0 | 0.0 | 0.0 | 0.00 | 4.50 | 3.90 | 1015.9 | ||
| 20260902165020 | 0 | 0.0 | 0.0 | 0.00 | 4.50 | 3.90 | 1016.1 | ||
| 20260902164534 | 0 | 0.0 | 0.0 | 0.00 | 4.50 | 3.90 | 1016.2 | ||
| 20260902164018 | 0 | 0.0 | 0.0 | 0.00 | 4.50 | 3.90 | 1016.3 | ||
| 20260902163516 | 0 | 0.0 | 0.0 | 0.00 | 4.50 | 3.90 | 1016.3 | ||
| 20260902163031 | 0 | 0.0 | 0.0 | 0.00 | 4.50 | 3.90 | 1016.5 | ||
| 20260902162516 | 0 | 0.0 | 0.0 | 0.00 | 4.50 | 3.90 | 1016.6 | ||
| 20260902162020 | 0 | 0.0 | 0.0 | 0.00 | 4.50 | 3.90 | 1016.6 | ||
| 20260902161539 | 0 | 0.0 | 0.0 | 0.00 | 4.50 | 3.90 | 1016.7 | ||
| 20260902161018 | 0 | 0.0 | 0.0 | 0.00 | 4.50 | 3.90 | 1016.6 | ||
| 20260902160515 | 0 | 0.0 | 0.0 | 0.00 | 4.50 | 3.90 | 1016.7 | ||
| 20260902160032 | 0 | 0.0 | 0.0 | 0.06 | 4.50 | 3.90 | 1016.7 | ||
| 20260902155519 | 0 | 0.0 | 0.0 | 0.21 | 4.50 | 3.90 | 1016.7 | ||
| 20260902155016 | 0 | 0.0 | 0.0 | 0.33 | 4.50 | 3.90 | 1016.8 | ||
| 20260902154534 | 0 | 0.0 | 0.0 | 0.40 | 4.50 | 3.90 | 1016.8 | ||
| 20260902154019 | 0 | 0.0 | 0.0 | 0.47 | 4.50 | 3.90 | 1016.8 | ||
| 20260902153521 | 0 | 0.0 | 0.0 | 0.55 | 4.50 | 3.90 | 1016.8 | ||
| 20260902153030 | 0 | 0.0 | 0.0 | 0.58 | 4.50 | 3.90 | 1016.6 | ||
| 20260902152517 | 0 | 0.0 | 0.0 | 0.63 | 4.50 | 3.90 | 1016.5 | ||
| 20260902152018 | 0 | 0.0 | 0.0 | 0.66 | 4.50 | 3.90 | 1016.3 | ||
| 20260902151544 | 0 | 0.0 | 0.0 | 0.68 | 4.50 | 3.90 | 1016.2 | ||
| 20260902151019 | 73 | 0.0 | 0.0 | 0.73 | 4.50 | 3.90 | 94 | 1016.4 | |
| 20260902150519 | 73 | 4.0 | 10.0 | 0.74 | 4.50 | 3.90 | 94 | 1016.3 | |
| 20260902150021 | 73 | 237 | 3.0 | 10.0 | 0.72 | 4.44 | 3.84 | 94 | 1016.4 |
| 20260902145512 | 73 | 222 | 2.0 | 15.0 | 0.58 | 4.29 | 3.69 | 94 | 1016.1 |
| 20260902145018 | 73 | 360 | 4.0 | 15.0 | 0.49 | 4.17 | 3.57 | 94 | 1016.1 |
| 20260902144527 | 73 | 216 | 6.0 | 15.0 | 0.46 | 4.10 | 3.50 | 94 | 1016.2 |
| 20260902144015 | 73 | 271 | 7.0 | 15.0 | 0.42 | 4.03 | 3.43 | 94 | 1016.1 |
| 20260902143522 | 73 | 182 | 7.0 | 15.0 | 0.37 | 3.95 | 3.35 | 94 | 1016.1 |
| 20260902143029 | 73 | 317 | 4.0 | 11.0 | 0.35 | 3.91 | 3.31 | 94 | 1016.0 |
| 20260902142519 | 73 | 213 | 6.0 | 14.0 | 0.31 | 3.87 | 3.27 | 94 | 1015.9 |
| 20260902142020 | 73 | 225 | 5.0 | 18.0 | 0.28 | 3.84 | 3.24 | 94 | 1015.9 |
| 20260902141537 | 74 | 194 | 7.0 | 18.0 | 0.26 | 3.82 | 3.22 | 94 | 1015.9 |
| 20260902141019 | 73 | 105 | 4.0 | 12.0 | 0.21 | 3.77 | 3.17 | 94 | 1015.9 |
| 20260902140519 | 74 | 165 | 5.0 | 12.0 | 0.20 | 3.76 | 3.16 | 94 | 1015.8 |
| 20260902140125 | 74 | 132 | 5.0 | 22.0 | 0.14 | 3.70 | 3.10 | 94 | 1015.5 |
| 20260902140118 | 74 | 228 | 5.0 | 13.0 | 0.08 | 3.64 | 3.04 | 94 | 1015.3 |
| 20260902140111 | 74 | 240 | 4.0 | 12.0 | 0.05 | 3.61 | 3.01 | 94 | 1015.3 |
| 20260902133034 | 0 | 0.0 | 0.0 | 0.00 | 3.56 | 2.96 | 1015.1 | ||
| 20260902132520 | 0 | 0.0 | 0.0 | 0.00 | 3.56 | 2.96 | 1014.9 | ||
| 20260902132018 | 0 | 0.0 | 0.0 | 0.01 | 3.56 | 2.96 | 1015.0 | ||
| 20260902131538 | 0 | 0.0 | 0.0 | 0.02 | 3.56 | 2.96 | 1014.9 | ||
| 20260902131015 | 0 | 0.0 | 0.0 | 0.03 | 3.56 | 2.96 | 1014.8 | ||
| 20260902130522 | 0 | 0.0 | 0.0 | 0.05 | 3.56 | 2.96 | 1014.6 | ||
| 20260902130034 | 0 | 0.0 | 0.0 | 0.05 | 3.56 | 2.96 | 1014.6 | ||
| 20260902125515 | 0 | 0.0 | 0.0 | 0.05 | 3.56 | 2.96 | 1014.5 | ||
| 20260902125022 | 0 | 0.0 | 0.0 | 0.06 | 3.56 | 2.96 | 1014.5 | ||
| 20260902124534 | 0 | 0.0 | 0.0 | 0.06 | 3.56 | 2.96 | 1014.3 | ||
| 20260902124018 | 0 | 0.0 | 0.0 | 0.07 | 3.56 | 2.96 | 1014.1 | ||
| 20260902123518 | 74 | 0.0 | 0.0 | 0.09 | 3.56 | 2.96 | 94 | 1014.0 | |
| 20260902123032 | 74 | 3.0 | 11.0 | 0.10 | 3.56 | 2.96 | 94 | 1013.8 | |
| 20260902122520 | 74 | 244 | 3.0 | 10.0 | 0.10 | 3.56 | 2.96 | 94 | 1013.8 |
| 20260902122017 | 74 | 105 | 4.0 | 13.0 | 0.10 | 3.55 | 2.95 | 94 | 1013.8 |
| 20260902121529 | 74 | 319 | 2.0 | 13.0 | 0.10 | 3.54 | 2.94 | 94 | 1013.7 |
| 20260902121017 | 74 | 160 | 6.0 | 16.0 | 0.10 | 3.53 | 2.93 | 94 | 1013.8 |
| 20260902120507 | 74 | 49 | 4.0 | 14.0 | 0.11 | 3.51 | 2.91 | 94 | 1013.7 |
| 20260902120034 | 74 | 135 | 5.0 | 14.0 | 0.16 | 3.51 | 2.91 | 94 | 1013.6 |
| 20260902115512 | 74 | 109 | 4.0 | 15.0 | 0.19 | 3.51 | 2.91 | 94 | 1013.6 |
| 20260902115010 | 74 | 147 | 6.0 | 15.0 | 0.23 | 3.50 | 2.90 | 94 | 1013.6 |
| 20260902114541 | 74 | 266 | 3.0 | 20.0 | 0.25 | 3.50 | 2.90 | 94 | 1013.5 |
| 20260902114017 | 74 | 127 | 6.0 | 20.0 | 0.27 | 3.49 | 2.89 | 94 | 1013.6 |
| 20260902113514 | 74 | 42 | 3.0 | 19.0 | 0.27 | 3.47 | 2.87 | 94 | 1013.7 |
| 20260902113019 | 74 | 85 | 3.0 | 18.0 | 0.27 | 3.46 | 2.86 | 94 | 1013.6 |
| 20260902112518 | 74 | 158 | 7.0 | 16.0 | 0.27 | 3.46 | 2.86 | 94 | 1013.5 |
| 20260902112015 | 74 | 185 | 3.0 | 19.0 | 0.28 | 3.45 | 2.85 | 94 | 1013.3 |
| 20260902111527 | 74 | 180 | 3.0 | 19.0 | 0.31 | 3.44 | 2.84 | 94 | 1013.2 |
| 20260902111016 | 74 | 340 | 5.0 | 18.0 | 0.36 | 3.43 | 2.83 | 94 | 1013.3 |
| 20260902110519 | 74 | 329 | 3.0 | 10.0 | 0.36 | 3.40 | 2.80 | 94 | 1013.3 |
| 20260902110040 | 74 | 338 | 2.0 | 14.0 | 0.33 | 3.35 | 2.75 | 94 | 1013.5 |
| 20260902105505 | 74 | 13 | 4.0 | 14.0 | 0.31 | 3.32 | 2.72 | 94 | 1013.5 |
| 20260902105007 | 74 | 128 | 5.0 | 13.0 | 0.27 | 3.27 | 2.67 | 94 | 1013.4 |
| 20260902104531 | 74 | 227 | 5.0 | 13.0 | 0.26 | 3.25 | 2.65 | 94 | 1013.4 |
| 20260902104007 | 74 | 213 | 3.0 | 15.0 | 0.24 | 3.22 | 2.62 | 94 | 1013.2 |
| 20260902103517 | 74 | 84 | 4.0 | 15.0 | 0.24 | 3.20 | 2.60 | 94 | 1013.3 |
| 20260902103019 | 74 | 338 | 4.0 | 16.0 | 0.28 | 3.19 | 2.59 | 94 | 1013.2 |
| 20260902102520 | 74 | 229 | 4.0 | 16.0 | 0.34 | 3.19 | 2.59 | 94 | 1013.2 |
| 20260902102013 | 73 | 178 | 4.0 | 13.0 | 0.34 | 3.17 | 2.57 | 94 | 1013.3 |
| 20260902101533 | 73 | 51 | 4.0 | 16.0 | 0.33 | 3.13 | 2.53 | 94 | 1013.1 |
| 20260902101016 | 73 | 236 | 6.0 | 16.0 | 0.29 | 3.07 | 2.47 | 93 | 1013.0 |
| 20260902100516 | 74 | 68 | 3.0 | 10.0 | 0.27 | 3.04 | 2.44 | 94 | 1013.2 |
| 20260902100027 | 74 | 114 | 4.0 | 12.0 | 0.26 | 3.02 | 2.42 | 94 | 1013.4 |
| 20260902095515 | 74 | 215 | 2.0 | 13.0 | 0.27 | 3.01 | 2.41 | 94 | 1013.3 |
| 20260902095016 | 74 | 191 | 4.0 | 15.0 | 0.28 | 3.00 | 2.40 | 94 | 1013.2 |
| 20260902094533 | 74 | 157 | 2.0 | 15.0 | 0.28 | 2.99 | 2.39 | 94 | 1013.1 |
| 20260902094015 | 74 | 217 | 3.0 | 11.0 | 0.29 | 2.98 | 2.38 | 94 | 1013.2 |
| 20260902093508 | 74 | 222 | 3.0 | 12.0 | 0.41 | 2.96 | 2.35 | 94 | 1013.2 |
| 20260902093035 | 74 | 262 | 4.0 | 12.0 | 0.50 | 2.91 | 2.31 | 94 | 1013.2 |
| 20260902092508 | 74 | 209 | 3.0 | 10.0 | 0.51 | 2.85 | 2.25 | 93 | 1013.1 |
| 20260902092023 | 74 | 293 | 2.0 | 17.0 | 0.70 | 2.83 | 2.23 | 93 | 1013.1 |
| 20260902091503 | 74 | 223 | 4.0 | 17.0 | 0.78 | 2.80 | 2.20 | 94 | 1013.3 |
| 20260902091003 | 74 | 204 | 6.0 | 17.0 | 0.78 | 2.78 | 2.18 | 94 | 1013.3 |
| 20260902090504 | 74 | 186 | 5.0 | 14.0 | 0.87 | 2.77 | 2.17 | 94 | 1013.2 |
| 20260902090002 | 74 | 225 | 4.0 | 19.0 | 0.91 | 2.76 | 2.16 | 94 | 1013.1 |
| 20260902085503 | 74 | 76 | 4.0 | 19.0 | 0.99 | 2.74 | 2.14 | 94 | 1013.1 |
| 20260902085018 | 74 | 117 | 7.0 | 15.0 | 1.03 | 2.72 | 2.11 | 94 | 1013.2 |
| 20260902084530 | 74 | 154 | 4.0 | 17.0 | 1.04 | 2.71 | 2.10 | 94 | 1013.2 |
| 20260902084009 | 74 | 227 | 4.0 | 17.0 | 1.04 | 2.69 | 2.08 | 94 | 1013.3 |
| 20260902083507 | 74 | 118 | 7.0 | 17.0 | 0.92 | 2.55 | 1.95 | 94 | 1013.5 |
| 20260902083031 | 74 | 49 | 7.0 | 19.0 | 0.86 | 2.41 | 1.81 | 93 | 1013.7 |
| 20260902082511 | 74 | 163 | 8.0 | 19.0 | 0.86 | 2.33 | 1.74 | 93 | 1013.5 |
| 20260902082021 | 74 | 65 | 7.0 | 19.0 | 0.73 | 2.13 | 1.53 | 94 | 1014.0 |
| 20260902081517 | 74 | 146 | 4.0 | 15.0 | 0.80 | 2.02 | 1.42 | 93 | 1013.4 |
| 20260902081016 | 74 | 171 | 3.0 | 15.0 | 0.90 | 2.00 | 1.40 | 93 | 1013.4 |
| 20260902080517 | 74 | 350 | 1.0 | 11.0 | 0.94 | 1.90 | 1.30 | 93 | 1013.4 |
| 20260902080008 | 74 | 360 | 4.0 | 12.0 | 1.05 | 1.85 | 1.25 | 93 | 1013.2 |
| 20260902075503 | 74 | 27 | 3.0 | 12.0 | 1.02 | 1.75 | 1.15 | 93 | 1013.3 |
| 20260902075013 | 74 | 27 | 4.0 | 11.0 | 0.99 | 1.69 | 1.09 | 93 | 1013.3 |
| 20260902074507 | 74 | 29 | 3.0 | 8.0 | 1.00 | 1.67 | 1.07 | 93 | 1013.4 |
| 20260902074017 | 74 | 360 | 1.0 | 11.0 | 1.02 | 1.65 | 1.04 | 93 | 1013.5 |
| 20260902073508 | 74 | 26 | 2.0 | 12.0 | 1.01 | 1.63 | 1.03 | 93 | 1013.5 |
| 20260902073009 | 75 | 30 | 3.0 | 12.0 | 0.93 | 1.55 | 0.95 | 93 | 1013.7 |
| 20260902072521 | 75 | 360 | 3.0 | 10.0 | 0.86 | 1.48 | 0.88 | 93 | 1013.7 |
| 20260902072021 | 75 | 31 | 4.0 | 13.0 | 0.78 | 1.40 | 0.80 | 93 | 1013.9 |
| 20260902071514 | 75 | 360 | 5.0 | 13.0 | 0.60 | 1.22 | 0.62 | 93 | 1013.8 |
| 20260902071009 | 75 | 9 | 2.0 | 16.0 | 0.48 | 1.10 | 0.50 | 93 | 1013.6 |
| 20260902070521 | 75 | 71 | 5.0 | 16.0 | 0.34 | 0.96 | 0.36 | 93 | 1013.4 |
| 20260902070036 | 75 | 180 | 3.0 | 13.0 | 0.17 | 0.79 | 0.19 | 93 | 1013.6 |
| 20260902065518 | 75 | 38 | 2.0 | 9.0 | 0.11 | 0.73 | 0.13 | 93 | 1013.3 |
| 20260902065018 | 75 | 334 | 2.0 | 13.0 | 0.08 | 0.70 | 0.10 | 93 | 1013.5 |
| 20260902064507 | 75 | 219 | 3.0 | 14.0 | 0.05 | 0.67 | 0.07 | 93 | 1013.4 |
| 20260902064020 | 76 | 105 | 3.0 | 14.0 | 0.01 | 0.63 | 0.03 | 93 | 1013.3 |
| 20260902063503 | 76 | 41 | 2.0 | 14.0 | 0.00 | 0.62 | 0.02 | 94 | 1013.2 |
| 20260902063006 | 76 | 155 | 6.0 | 14.0 | 0.01 | 0.62 | 0.02 | 94 | 1013.3 |
| 20260902062506 | 76 | 101 | 2.0 | 11.0 | 0.01 | 0.62 | 0.02 | 94 | 1013.3 |
| 20260902062007 | 76 | 230 | 2.0 | 10.0 | 0.01 | 0.62 | 0.02 | 94 | 1013.3 |
| 20260902061514 | 76 | 173 | 3.0 | 10.0 | 0.01 | 0.62 | 0.02 | 94 | 1013.1 |
| 20260902061015 | 76 | 118 | 2.0 | 5.0 | 0.02 | 0.62 | 0.02 | 94 | 1013.1 |
| 20260902060511 | 76 | 316 | 1.0 | 8.0 | 0.02 | 0.62 | 0.02 | 94 | 1013.3 |
| 20260902060022 | 76 | 173 | 2.0 | 8.0 | 0.02 | 0.62 | 0.02 | 94 | 1013.3 |
| 20260902055513 | 76 | 43 | 2.0 | 6.0 | 0.02 | 0.62 | 0.02 | 93 | 1013.2 |
| 20260902055021 | 76 | 32 | 3.0 | 7.0 | 0.02 | 0.62 | 0.02 | 93 | 1013.2 |
| 20260902054525 | 76 | 87 | 1.0 | 7.0 | 0.02 | 0.62 | 0.02 | 93 | 1013.3 |
| 20260902054019 | 76 | 84 | 0.0 | 6.0 | 0.03 | 0.62 | 0.02 | 93 | 1013.4 |
| 20260902053517 | 76 | 146 | 1.0 | 5.0 | 0.03 | 0.62 | 0.02 | 93 | 1013.4 |
| 20260902053032 | 76 | 58 | 1.0 | 11.0 | 0.03 | 0.61 | 0.01 | 93 | 1013.4 |
| 20260902052503 | 76 | 40 | 2.0 | 11.0 | 0.03 | 0.61 | 0.01 | 93 | 1013.3 |
| 20260902052015 | 76 | 75 | 2.0 | 9.0 | 0.03 | 0.61 | 0.01 | 93 | 1013.3 |
| 20260902051509 | 76 | 226 | 2.0 | 9.0 | 0.03 | 0.61 | 0.01 | 93 | 1013.3 |
| 20260902051018 | 76 | 88 | 2.0 | 7.0 | 0.02 | 0.60 | 0.00 | 93 | 1013.3 |
| 20260902050516 | 76 | 94 | 2.0 | 10.0 | 0.03 | 0.60 | 0.00 | 93 | 1013.4 |
| 20260902050020 | 76 | 169 | 2.0 | 10.0 | 0.03 | 0.60 | 0.00 | 93 | 1013.5 |
| 20260902045519 | 76 | 67 | 1.0 | 11.0 | 0.04 | 0.60 | 0.60 | 93 | 1013.5 |
| 20260902045012 | 76 | 63 | 3.0 | 11.0 | 0.04 | 0.60 | 0.60 | 93 | 1013.5 |
| 20260902044537 | 76 | 78 | 2.0 | 11.0 | 0.05 | 0.60 | 0.60 | 93 | 1013.5 |
| 20260902044013 | 76 | 47 | 2.0 | 6.0 | 0.04 | 0.58 | 0.58 | 93 | 1013.4 |
| 20260902043511 | 76 | 30 | 2.0 | 12.0 | 0.05 | 0.58 | 0.58 | 93 | 1013.3 |
| 20260902043031 | 76 | 103 | 3.0 | 12.0 | 0.04 | 0.58 | 0.58 | 93 | 1013.4 |
| 20260902042518 | 76 | 58 | 1.0 | 10.0 | 0.05 | 0.58 | 0.58 | 93 | 1013.3 |
| 20260902042018 | 76 | 94 | 2.0 | 9.0 | 0.06 | 0.58 | 0.58 | 93 | 1013.2 |
| 20260902041537 | 76 | 182 | 2.0 | 10.0 | 0.07 | 0.58 | 0.58 | 93 | 1013.1 |
| 20260902041018 | 76 | 81 | 2.0 | 10.0 | 0.08 | 0.58 | 0.58 | 93 | 1013.0 |
| 20260902040517 | 76 | 103 | 1.0 | 8.0 | 0.07 | 0.57 | 0.57 | 93 | 1013.0 |
| 20260902040035 | 76 | 30 | 2.0 | 13.0 | 0.08 | 0.57 | 0.57 | 93 | 1013.1 |
| 20260902035510 | 76 | 115 | 2.0 | 13.0 | 0.07 | 0.56 | 0.56 | 93 | 1013.1 |
| 20260902035015 | 76 | 239 | 3.0 | 13.0 | 0.08 | 0.56 | 0.56 | 93 | 1013.1 |